RYR6MU EDHL-EDNY

Flight info

Callsign RYR6MU
Flight time N/A
Altitude 23000
Route HAM1A HAM M852 AMLUH/N0422F270 M852 DENIX/N0398F230 Z113 SAS/N0450F350 P605 ELNAT/N0397F230 P605 OBISI DCT OSBIT/N0450F380 DCT GIBSA DCT NOSBU DCT ESULI N851 LOKTA T122 ARFAS
Aircraft B738/M-SDE2E3FGHIRWXY/LB1

Departure

Time 2026-05-09 18:55
Airport Lübeck Blankensee Airport (EDHL)

Arrival

Time N/A
Airport Bodensee Airport Friedrichshafen (EDNY)
Time Latitude Longitude Altitude Speed Heading
2026-05-09 18:34 53.80443 10.70311 54 ft 0 kts 116°
2026-05-09 18:51 53.80436 10.70317 54 ft 2 kts 161°
2026-05-09 18:51 53.80425 10.70300 49 ft 3 kts 232°
2026-05-09 18:52 53.80412 10.70256 55 ft 6 kts 246°
2026-05-09 18:52 53.80391 10.70171 51 ft 8 kts 248°
2026-05-09 18:52 53.80344 10.70129 59 ft 8 kts 177°
2026-05-09 18:52 53.80289 10.70146 53 ft 8 kts 167°
2026-05-09 18:53 53.80236 10.70166 59 ft 8 kts 159°
2026-05-09 18:53 53.80211 10.70241 60 ft 8 kts 87°
2026-05-09 18:53 53.80216 10.70282 53 ft 1 kts 73°
2026-05-09 18:54 53.80217 10.70286 54 ft 2 kts 72°
2026-05-09 18:54 53.80284 10.70629 58 ft 67 kts 72°
2026-05-09 18:54 53.80517 10.71841 57 ft 146 kts 71°
2026-05-09 18:55 53.80891 10.73720 514 ft 182 kts 71°
2026-05-09 18:55 53.81332 10.75822 1386 ft 194 kts 72°
2026-05-09 18:55 53.81745 10.77910 2698 ft 179 kts 75°
2026-05-09 18:55 53.82101 10.79829 3778 ft 166 kts 76°
2026-05-09 18:56 53.82461 10.81804 4236 ft 190 kts 76°
2026-05-09 18:56 53.82886 10.84094 4507 ft 216 kts 75°
2026-05-09 18:56 53.83342 10.86654 4716 ft 236 kts 81°
2026-05-09 18:56 53.83197 10.89421 5149 ft 241 kts 115°
2026-05-09 18:57 53.82185 10.91593 5774 ft 241 kts 147°
2026-05-09 18:57 53.80603 10.92520 6583 ft 240 kts 179°
2026-05-09 18:57 53.78997 10.91958 7346 ft 243 kts 201°
2026-05-09 18:57 53.77447 10.90755 8024 ft 248 kts 207°
2026-05-09 18:58 53.76131 10.88853 8621 ft 256 kts 236°
2026-05-09 18:58 53.75442 10.85974 8968 ft 275 kts 257°
2026-05-09 18:58 53.75093 10.82730 9534 ft 284 kts 259°
2026-05-09 18:58 53.74770 10.79418 10084 ft 287 kts 259°
2026-05-09 18:59 53.74446 10.76076 10117 ft 288 kts 259°
2026-05-09 18:59 53.74117 10.72743 10129 ft 288 kts 259°
2026-05-09 18:59 53.73780 10.69398 10135 ft 288 kts 259°
2026-05-09 18:59 53.73439 10.66057 10132 ft 288 kts 259°
2026-05-09 19:00 53.73094 10.62726 10132 ft 288 kts 259°
2026-05-09 19:00 53.72397 10.56054 10133 ft 288 kts 259°
2026-05-09 19:00 53.72051 10.52767 10134 ft 288 kts 258°
2026-05-09 19:01 53.71699 10.49432 10133 ft 288 kts 258°
2026-05-09 19:01 53.71347 10.46113 10133 ft 288 kts 258°
2026-05-09 19:01 53.70993 10.42780 10129 ft 288 kts 258°
2026-05-09 19:01 53.70640 10.39457 10132 ft 287 kts 258°
2026-05-09 19:02 53.70286 10.36142 10138 ft 287 kts 258°
2026-05-09 19:02 53.69931 10.32835 10131 ft 286 kts 258°
2026-05-09 19:02 53.69574 10.29525 10136 ft 286 kts 258°
2026-05-09 19:02 53.69040 10.26319 10122 ft 284 kts 240°
2026-05-09 19:03 53.67776 10.23816 10136 ft 281 kts 214°
2026-05-09 19:03 53.65994 10.22518 10139 ft 281 kts 190°
2026-05-09 19:03 53.64051 10.22533 10136 ft 283 kts 169°
2026-05-09 19:03 53.62127 10.23333 10140 ft 285 kts 165°
2026-05-09 19:04 53.60212 10.24247 10157 ft 289 kts 164°
2026-05-09 19:04 53.58230 10.25204 10510 ft 300 kts 165°
2026-05-09 19:04 53.56188 10.26178 11011 ft 309 kts 165°
2026-05-09 19:04 53.54120 10.27148 11508 ft 317 kts 165°
2026-05-09 19:05 53.51966 10.28148 12029 ft 325 kts 166°
2026-05-09 19:05 53.49757 10.29164 12546 ft 333 kts 166°
2026-05-09 19:05 53.47499 10.30199 13073 ft 340 kts 166°
2026-05-09 19:05 53.45190 10.31253 13613 ft 348 kts 166°
2026-05-09 19:06 53.42829 10.32329 14127 ft 354 kts 166°
2026-05-09 19:06 53.40426 10.33414 14614 ft 361 kts 166°
2026-05-09 19:06 53.37979 10.34512 15097 ft 366 kts 166°
2026-05-09 19:06 53.35515 10.35614 15596 ft 368 kts 167°
2026-05-09 19:07 53.33038 10.36723 16093 ft 370 kts 167°
2026-05-09 19:07 53.30536 10.37841 16611 ft 374 kts 167°
2026-05-09 19:07 53.28015 10.38968 17126 ft 377 kts 167°
2026-05-09 19:07 53.25467 10.40105 17656 ft 379 kts 167°
2026-05-09 19:08 53.22907 10.41248 18190 ft 382 kts 167°
2026-05-09 19:08 53.20329 10.42397 18688 ft 384 kts 167°
2026-05-09 19:08 53.17737 10.43550 19163 ft 387 kts 167°
2026-05-09 19:08 53.15116 10.44713 19643 ft 390 kts 168°
2026-05-09 19:09 53.12437 10.45519 20124 ft 391 kts 177°
2026-05-09 19:09 53.09721 10.45542 20624 ft 391 kts 185°
2026-05-09 19:09 53.07000 10.45255 21135 ft 393 kts 186°
2026-05-09 19:09 53.04264 10.44932 21644 ft 394 kts 186°
2026-05-09 19:10 53.01519 10.44614 22167 ft 396 kts 186°
2026-05-09 19:10 52.98766 10.44311 22691 ft 397 kts 185°
2026-05-09 19:10 52.96002 10.44021 23229 ft 398 kts 185°
2026-05-09 19:10 52.93240 10.43741 23764 ft 398 kts 185°
2026-05-09 19:11 52.90471 10.43466 24110 ft 401 kts 185°
2026-05-09 19:11 52.87641 10.43185 24124 ft 414 kts 185°
2026-05-09 19:11 52.84733 10.42897 24140 ft 423 kts 185°
2026-05-09 19:11 52.81819 10.42611 24135 ft 424 kts 185°
2026-05-09 19:12 52.78886 10.42323 24130 ft 421 kts 185°
2026-05-09 19:12 52.76005 10.41656 24119 ft 416 kts 195°
2026-05-09 19:12 52.73236 10.40234 24143 ft 416 kts 200°
2026-05-09 19:12 52.70491 10.38699 24131 ft 417 kts 200°
2026-05-09 19:13 52.67740 10.37151 24123 ft 417 kts 200°
2026-05-09 19:13 52.64985 10.35611 24116 ft 418 kts 200°
2026-05-09 19:13 52.62226 10.34086 24123 ft 416 kts 200°
2026-05-09 19:13 52.59506 10.32600 24606 ft 410 kts 200°
2026-05-09 19:14 52.56799 10.31130 25072 ft 409 kts 200°
2026-05-09 19:14 52.54104 10.29673 25542 ft 407 kts 199°
2026-05-09 19:14 52.51413 10.28223 25967 ft 408 kts 199°
2026-05-09 19:14 52.48842 10.26841 26316 ft 409 kts 199°
2026-05-09 19:15 52.46135 10.25387 26699 ft 410 kts 200°
2026-05-09 19:15 52.43421 10.23931 27082 ft 410 kts 200°
2026-05-09 19:15 52.40707 10.22477 27471 ft 411 kts 200°
2026-05-09 19:15 52.37985 10.21021 27876 ft 411 kts 200°
2026-05-09 19:16 52.35257 10.19564 28169 ft 414 kts 200°
2026-05-09 19:16 52.32483 10.18082 28127 ft 425 kts 200°
2026-05-09 19:16 52.26813 10.15061 28116 ft 428 kts 199°
2026-05-09 19:17 52.21199 10.12083 28112 ft 423 kts 199°
2026-05-09 19:17 52.15581 10.09107 28122 ft 424 kts 199°
2026-05-09 19:18 52.10006 10.06162 28111 ft 423 kts 199°